Weather History for PATK - November, 2012

Change the Weather History Date:

Friday, November 9, 2012

  Actual Average Record
Temperature  
Mean Temperature 26 °F -  
Max Temperature 30 °F 27 °F 45 °F (1979)
Min Temperature 23 °F 12 °F -21 °F (1955)
Degree Days  
Heating Degree Days 38    
Moisture  
Dew Point 21 °F    
Average Humidity 81    
Maximum Humidity 100    
Minimum Humidity 37    
Precipitation  
Precipitation 0.01 in - - ()
Snow  
Snow 0.00 in - - ()
Snow Depth 2.00 in    
Sea Level Pressure  
Sea Level Pressure 30.01 in    
Wind  
Wind Speed 7 mph (North)    
Max Wind Speed 10 mph    
Max Gust Speed 18 mph    
Visibility 5 miles    
Events Snow    
Averages and records for this station are not official NWS values.
T = Trace of Precipitation, MM = Missing Value Source: NWS Daily Summary

Daily Weather History Graph

Daily Weather History Graph

Search for Another Location

Airport or City:

Trip Planner

Search our weather history database for the weather conditions in past years. The results will help you decide how hot, cold, wet, or windy it might be!

Date:

Astronomy

Nov. 09, 2012 Rise Set
Actual Time 8:58 AM AKST 4:28 PM AKST
Civil Twilight 8:06 AM AKST 5:21 PM AKST
Nautical Twilight 7:11 AM AKST 6:16 PM AKST
Astronomical Twilight 6:18 AM AKST 7:08 PM AKST
Moon 2:47 AM AKST (11/9) 2:58 PM AKST (11/9)
Length of Visible Light 9h 14m
Length of Day
7h 29m
Waning Crescent, 22% of the Moon is Illuminated
Nov 9
Waning Crescent
Nov 13
New
Nov 20
First Quarter
Nov 28
Full
Dec 6
Last Quarter

Hourly Weather History & Observations

Time (AKST) Temp. Windchill Dew Point Humidity Pressure Visibility Wind Dir Wind Speed Gust Speed Precip Events Conditions
12:53 AM 26.1 °F 16.8 °F 3.0 °F 37% 30.21 in 10.0 mi NNE 9.2 mph - N/A   Overcast
1:53 AM 26.1 °F 16.8 °F 3.9 °F 39% 30.20 in 10.0 mi North 9.2 mph 18.4 mph 0.00 in   Overcast
3:53 AM 27.0 °F 20.5 °F 8.1 °F 45% 30.17 in 10.0 mi North 5.8 mph - 0.00 in   Overcast
4:53 AM 25.0 °F 16.3 °F 15.1 °F 66% 30.15 in 5.0 mi North 8.1 mph - 0.00 in Snow Light Snow
5:08 AM 24.8 °F 16.9 °F 17.6 °F 74% 30.13 in 3.0 mi North 6.9 mph - 0.00 in Snow Light Snow
5:18 AM 24.8 °F 16.1 °F 17.6 °F 74% 30.13 in 1.8 mi NNE 8.1 mph - 0.01 in Snow Light Snow
5:31 AM 24.8 °F 16.1 °F 19.4 °F 80% 30.13 in 1.0 mi North 8.1 mph - 0.01 in Snow Light Snow
5:39 AM 24.8 °F 16.1 °F 19.4 °F 80% 30.12 in 0.8 mi North 8.1 mph - 0.01 in Snow Light Snow
5:53 AM 23.0 °F 14.7 °F 21.0 °F 92% 30.14 in 0.8 mi North 6.9 mph 17.3 mph 0.02 in Snow Light Snow
6:16 AM 23.0 °F 12.4 °F 21.2 °F 93% 30.10 in 1.0 mi NNE 10.4 mph - 0.01 in Snow Light Snow
6:35 AM 23.0 °F 18.4 °F 21.2 °F 93% 30.10 in 1.2 mi North 3.5 mph - 0.02 in Snow Light Snow
6:53 AM 23.0 °F 17.0 °F 21.0 °F 92% 30.11 in 1.5 mi North 4.6 mph - 0.03 in Snow Light Snow
7:53 AM 24.1 °F 17.0 °F 21.9 °F 91% 30.09 in 2.5 mi North 5.8 mph - 0.01 in Snow Light Snow
8:21 AM 24.8 °F 17.9 °F 21.2 °F 86% 30.05 in 2.0 mi North 5.8 mph - 0.01 in Snow Light Snow
8:42 AM 24.8 °F 19.1 °F 21.2 °F 86% 30.05 in 1.8 mi North 4.6 mph - 0.01 in Snow Light Snow
8:53 AM 24.1 °F 16.0 °F 21.9 °F 91% 30.07 in 1.8 mi North 6.9 mph - 0.01 in Snow Light Snow
9:46 AM 24.8 °F 17.9 °F 23.0 °F 93% 30.03 in 0.8 mi NNE 5.8 mph - 0.02 in Snow Light Snow
9:53 AM 24.1 °F 18.2 °F 23.0 °F 96% 30.05 in 0.8 mi North 4.6 mph - 0.03 in Snow Light Snow
10:53 AM 25.0 °F 18.1 °F 23.0 °F 92% 30.04 in 0.8 mi North 5.8 mph - 0.03 in Snow Light Snow
11:17 AM 24.8 °F 19.1 °F 24.8 °F 100% 30.01 in 1.2 mi North 4.6 mph - 0.01 in Snow Light Snow
11:25 AM 24.8 °F 17.9 °F 24.8 °F 100% 30.01 in 0.8 mi North 5.8 mph - 0.01 in Snow Light Snow
11:29 AM 24.8 °F 19.1 °F 24.8 °F 100% 30.00 in 1.5 mi Variable 4.6 mph - 0.01 in Snow Light Snow
11:35 AM 24.8 °F 16.9 °F 24.8 °F 100% 30.00 in 3.0 mi North 6.9 mph - 0.01 in Snow Light Snow
11:53 AM 26.1 °F 18.4 °F 24.1 °F 92% 30.01 in 1.8 mi Variable 6.9 mph - 0.02 in Snow Light Snow
12:09 PM 26.6 °F 20.0 °F 24.8 °F 93% 29.98 in 3.0 mi North 5.8 mph - 0.00 in Snow Light Snow
12:53 PM 27.0 °F 20.5 °F 24.1 °F 89% 29.99 in 10.0 mi North 5.8 mph - 0.00 in   Overcast
1:53 PM 27.0 °F 19.5 °F 24.1 °F 89% 29.96 in 10.0 mi North 6.9 mph - N/A   Overcast
2:53 PM 28.0 °F 21.7 °F 23.0 °F 81% 29.95 in 9.0 mi North 5.8 mph - 0.00 in   Overcast
3:53 PM 28.0 °F 20.0 °F 24.1 °F 85% 29.92 in 2.5 mi NNE 8.1 mph - 0.01 in Snow Light Snow
4:00 PM 28.4 °F 20.4 °F 24.8 °F 86% 29.89 in 3.0 mi North 8.1 mph - 0.00 in Snow Light Snow
4:53 PM 28.0 °F 19.3 °F 23.0 °F 81% 29.89 in 6.0 mi NNE 9.2 mph - 0.00 in Snow Light Snow
5:53 PM 28.9 °F 21.1 °F 21.9 °F 75% 29.87 in 10.0 mi NNE 8.1 mph - 0.00 in   Overcast
6:53 PM 28.9 °F 19.8 °F 21.9 °F 75% 29.86 in 8.0 mi NNE 10.4 mph 16.1 mph 0.00 in Snow Light Snow
7:53 PM 30.0 °F 21.7 °F 19.9 °F 66% 29.84 in 10.0 mi NNE 9.2 mph - 0.00 in   Overcast
8:53 PM 30.0 °F 23.2 °F 21.0 °F 69% 29.83 in 10.0 mi North 6.9 mph - N/A   Overcast
9:53 PM 30.0 °F 23.2 °F 21.0 °F 69% 29.81 in 10.0 mi North 6.9 mph - N/A   Overcast
10:53 PM 30.9 °F 22.8 °F 21.9 °F 69% 29.80 in 9.0 mi NNE 9.2 mph - 0.00 in   Overcast
11:53 PM 30.9 °F 24.3 °F 21.9 °F 69% 29.79 in 10.0 mi North 6.9 mph - N/A   Overcast